Tracking 22879 objects as of 23-Apr-2021
HD Live streaming from Space Station
objects crossing your sky now

OBJECT H

Track OBJECT H now!
10-day predictions


NORAD ID: 42832
Int'l Code: 2017-042H
Perigee: 591.3 km
Apogee: 609.7 km
Inclination: 97.5 °
Period: 96.5 minutes
Semi major axis: 6971 km
RCS: Unknown
Launch date: July 14, 2017
Source: (TBD)
Launch site: TYURATAM MISSILE AND SPACE COMPLEX (TTMTR)
aabbcc
Your satellite tracking list
Your tracking list is empty




NASA's NSSDC Master Catalog

Two Line Element Set (TLE):
1 42832U 17042H   21112.59564784  .00000444  00000-0  49573-4 0  9992
2 42832  97.4790 345.6020 0013203 337.4853  22.5785 14.91473304205382
Source of the keplerian elements: AFSPC